SL-16 DEB, 44574

Orbit data source: Space-Track

SL-16 DEB, 44574 is space debris in LEO originally from a launch on Fri, 25 Dec 1992 UTC launched from the Tyuratam Missile And Space Complex (TTMTR). Debris objects in space refer to the collection of defunct objects orbiting the Earth. Examples of debris include non-operational satellites, rocket bodies, and fragments generated from explosions, collisions, or faulty payload assembly.

Loading next visibility...
Identifier
44574, 1992-093LW
Orbit
LEO
Country
Flag of CISCIS
Related business
Manufacturer
Unknown
Mission
Spacecraft
Bus & Motor
Unknown
Mass
Unknown
Launch date (UTC)
1992-12-25 (33 years ago)
Launch vehicle
Unknown
Launch site
Tyuratam Missile And Space Complex (TTMTR)
Object type
Payload
Rocket body
Debris
Shape & HBR
Unknown shape, 0.1 m
Radar Cross Section
Small (<0.1 m²)

Expand to show TLE details & history
Last TLE update: 15 hours ago

TLE from 15 hours ago
0 SL-16 DEB
1 44574U 92093LW  26036.94811400  .00013080  00000-0  31380-2 0  9990
2 44574  71.1199  19.3952 0086198 217.2462 176.8348 14.51280299635708
Epoch: 2026-02-05T22:45Z
TLE epoch observation values (Epoch: 2026-02-05T22:45:17.049Z)
Latitude
32.13912°
Longitude
-85.67877°
Altitude
786.221 km
Speed
7.432 km/s
True Right ascension
02h 06m 56s
True Declination
31° 59' 06"
Sunlit
Object was in daylight at epoch
Visualization orbit readout
Latitude
Unknown
Longitude
Unknown
Altitude
Unknown
Speed
Unknown
Apparent Right ascension
Unknown
Apparent Declination
Unknown
Sunlit
N/A
Visualization observer readout
Local Sidereal Time
15:50:27
Azimuth
Unknown
Elevation
Unknown
Doppler factor
Unknown
Orbital elements
Apogee altitude
780.526 km
Perigee altitude
658.168 km
Semi-major axis
7,097.484 km
Eccentricity
0.00862
Inclination
71.1199°
RAAN
19.3952°
Arg. of periapsis
217.2462°
True anomaly
176.88876°
Mean anomaly
176.8348°
Eccentric anomaly
176.86184°
Mean motion
3.62983 °/min
Orbital period
99.18 mins
BSTAR
0.003138
Loading maneuver chart data...
Computing Atmospheric mass density...

Documentation

Showing up to 5 results
|